Home   Weather   Lage   Past weeks

Flag for Germany Past Weather in Lage, North Rhine-Westphalia, Germany — Yesterday and Last 2 Weeks

Now
25 °F

Ice fog.


Feels Like: 20 °F
Forecast: 28 / 33 °F
Wind: 3 mph from North

Location: Bueckeburg

Current Time: Jan 23, 2017 at 3:54:41 am

Latest Report: Jan 23, 2017 at 3:20 am


Visibility: 0 mi

Pressure: 30.27 "Hg

Humidity: 100%

Dew Point: 25 °F

Location of LageLocation

Past Weather in Lage — Graph

°F

Lage Temperature Yesterday

Maximum temperature yesterday: 30 °F (at 11:20 am)
Minimum temperature yesterday: 21 °F (at 8:20 am)
Average temperature yesterday: 26 °F

High & Low Weather Summary for the Past Weeks

 TemperatureHumidityPressure
High43 °F (Jan 11, 2:07 pm)100% (Jan 8, 3:20 am)30.74 "Hg (Jan 8, 3:20 am)
Low21 °F (Jan 22, 8:20 am)52% (Jan 19, 2:20 pm)28.91 "Hg (Jan 13, 4:20 am)
Average32 °F89%30.13 "Hg
* Reported Jan 8 2:20 am — Jan 23 2:20 am, Lage, Weather by CustomWeather, © 2017

Note: Actual official high and low records may vary slightly from our data, if they occured in-between our weather recording intervals... More about our weather records

Advertising

Lage Weather History for the Previous 24 Hours

Scroll right to see more
 ConditionsComfort  
Time TempWeatherWind HumidityBarometerVisibility
2:20 am
Mon, Jan 23
25 °FIce fog.2 mph100%30.27 "Hg0 mi
1:20 am25 °FIce fog.1 mph100%30.30 "Hg0 mi
12:20 am25 °FIce fog.2 mph100%30.30 "Hg0 mi
11:20 pm
Sun, Jan 22
25 °FIce fog.2 mph100%30.30 "Hg0 mi
10:20 pm27 °FIce fog.2 mph93%30.30 "Hg0 mi
9:20 pm25 °FIce fog.2 mph100%30.30 "Hg0 mi
8:20 pm27 °FIce fog.3 mph93%30.30 "Hg0 mi
7:20 pm27 °FIce fog.3 mph93%30.30 "Hg0 mi
6:20 pm27 °FIce fog.6 mph100%30.30 "Hg0 mi
5:20 pm27 °FChilly.5 mph100%30.30 "HgN/A
4:20 pm27 °FChilly.6 mph100%30.30 "HgN/A
3:20 pm27 °FChilly.6 mph100%30.30 "HgN/A
2:20 pm27 °FChilly.7 mph100%30.30 "HgN/A
1:20 pm28 °FChilly.6 mph93%30.30 "HgN/A
12:20 pm30 °FChilly.6 mph86%30.33 "HgN/A
11:20 am30 °FChilly.2 mph86%30.33 "HgN/A
10:20 am28 °FChilly.1 mph93%30.36 "HgN/A
9:20 am25 °FCold.2 mph100%30.33 "HgN/A
8:20 am21 °FCold.2 mph93%30.33 "HgN/A
7:20 am23 °FCold.1 mph100%30.33 "HgN/A
6:20 am23 °FCold.1 mph93%30.33 "HgN/A
5:20 am27 °FChilly.6 mph93%30.33 "HgN/A
4:20 am25 °FCold.2 mph100%30.36 "HgN/A
3:20 am25 °FCold.2 mph100%30.36 "HgN/A
Weather by CustomWeather, © 2017

See weather overviewHow to use our weather pages